Simultaneous Nadir Overpasses (SNOs) Predictions

Prediction of SNOs between NOAA-19 and NPP Satellite Orbit:

Table of predicted SNOs for the next 14.0 days since TLE Epoch: 4/24/2021
Index Date (NOAA-19) Time (NOAA-19) Lat,Lon (NOAA-19) SZA (NOAA-19 ) Date (NPP) Time (NPP) Lat,Lon (NPP) SZA (NPP ) Distance(km) Time Diff (sec)
1 04/25/2021 02:57:44 -78.39, -71.76 113.58 04/25/2021 02:58:51 -78.38, -71.58 113.63 4.01 67
2 04/25/2021 03:48:43 78.39, 95.54 66.41 04/25/2021 03:49:37 78.40, 95.62 66.39 2.06 54
3 04/25/2021 04:39:44 -78.40, -97.17 113.60 04/25/2021 04:40:22 -78.43, -97.21 113.59 3.15 38
4 04/25/2021 05:30:43 78.41, 70.14 66.39 04/25/2021 05:31:07 78.41, 70.22 66.37 1.81 24
5 04/25/2021 06:21:44 -78.42,-122.58 113.62 04/25/2021 06:21:52 -78.43,-122.61 113.61 2.24 8
6 04/25/2021 07:12:43 78.42, 44.73 66.37 04/25/2021 07:12:37 78.42, 44.81 66.36 2.03 6
7 04/25/2021 08:03:44 -78.43,-147.99 113.64 04/25/2021 08:03:22 -78.44,-148.02 113.62 1.35 22
8 04/25/2021 08:54:43 78.44, 19.32 66.35 04/25/2021 08:54:07 78.42, 19.41 66.34 2.61 36
9 04/25/2021 09:45:43 -78.44,-173.40 113.66 04/25/2021 09:44:51 -78.44,-173.42 113.64 0.58 52
10 04/25/2021 10:36:42 78.45, -6.08 66.33 04/25/2021 10:35:36 78.43, -6.00 66.33 3.37 66
11 04/25/2021 11:27:34 -78.77, 163.38 113.60 04/25/2021 11:26:30 -78.79, 159.09 113.16 92.81 64



Historial Predications of SNOs between NOAA-19 and NPP
